Regional Weather Roundup
Issued by NWS

Home | Current Version | Previous Version | Graphics & Text | Print | Product List | Glossary On
Versions: 1 2 3 4 5 6 7 8 9 10 11 12 13 14 15 16 17 18 19 20 21 22 23 24 25 26 27 28 29 30 31 32 33 34 35 36 37 38 39 40 41 42 43 44 45 46 47
000
ASUS45 KSLC 312010
RWRUT

UTAH REGIONAL WEATHER ROUNDUP
NATIONAL WEATHER SERVICE SALT LAKE CITY UT
200 PM MDT TUE MAR 31 2015

UTZ001>011-023>025-312100-

NORTHERN UTAH

CITY           SKY/WX    TMP DP  RH WIND       PRES   REMARKS
BRIGHAM CITY   PTSUNNY   74  17  11 SW13      29.86F
HILL AFB       MOSUNNY   72  25  16 S23       29.89F
LOGAN          SUNNY     73  23  15 SW25G35   29.86F
OGDEN          PTSUNNY   75  23  14 S21G31    29.87F
PROVO AIRPORT  PTSUNNY   72  27  18 S5        29.94F
SALT LAKE CITY CLOUDY    75  21  13 S24       29.87F
VERNAL         SUNNY     69  22  16 N3        29.97F
WENDOVER       PTSUNNY   70  19  14 E6        29.85F
HEBER CITY     CLOUDY    66  19  16 SW14G31   29.97F
WEST JORDAN    SUNNY     73  30  20 SE22      29.90F

$$

UTZ012>022-026-027-312100-

SOUTHERN/CENTRAL UTAH

CITY           SKY/WX    TMP DP  RH WIND       PRES   REMARKS
BLANDING       SUNNY     69  24  18 SW3       30.15F
BRYCE CANYON   MOSUNNY   63  21  20 SW13G26   30.14F
CEDAR CITY     PTSUNNY   71  20  14 S20G29    30.03F
DELTA          CLOUDY    75  15  10 S23G37    29.93F
HANKSVILLE     SUNNY     79  23  12 SE6       29.96F
MILFORD        PTSUNNY   75  17  11 SW30G39   29.97F
MOAB/CYNLANDS  SUNNY     78  21  12 SE8       29.94F
PRICE          MOSUNNY   72  19  13 S12G21    29.99F
ST GEORGE      CLOUDY    77  30  18 NW3       29.95F
KANAB          MOSUNNY   75  23  14 S13G21    30.05F

$$

REGIONAL REPORTS     COLORADO/ARIZONA

CITY           SKY/WX    TMP DP  RH WIND       PRES   REMARKS
CRAIG, CO      SUNNY     72  17  12 W21G26    30.02F
GRAND JUNCTION MOSUNNY   72  20  14 NW3       29.98F
RIFLE          MOSUNNY   75  19  12 W20G28    30.00F
MONTROSE       MOSUNNY   76  16  10 W9G20     30.04F
CORTEZ         SUNNY     76  18  11 S10G20    30.08F
PAGE, AZ       SUNNY     78  24  13 VRB6      29.98F
GRAND CANYON   MOSUNNY   69  23  17 W20G28    30.15F
KINGMAN        MOSUNNY   81  30  15 SW18G30   30.01F
FLAGSTAFF      SUNNY     66  22  18 SW15G25   30.19F

$$

REGIONAL REPORTS    NEVADA/IDAHO/WYOMING

CITY           SKY/WX    TMP DP  RH WIND       PRES   REMARKS
LAS VEGAS, NV  PTSUNNY   88  19   8 S22G31    29.85F
ELY            MOSUNNY   67  12  12 SW20G32   29.98F
ELKO           SUNNY     72  18  13 SW24G32   29.91F
POCATELLO, ID  SUNNY     68  24  19 W24       29.85F
BURLEY         CLOUDY    68  29  23 W15G22    29.83F
EVANSTON, WY   PTSUNNY   64  14  14 SW29G41   30.00F
ROCK SPRINGS   SUNNY     69   9   9 SW17G31   29.97F
KEMMERER       MOSUNNY   64  10  12 SW23G40   29.99F

$$


USA.gov is the U.S. government's official web portal to all federal, state and local government web resources and services.